Terminal Aerodrome Forecast
Issued by NWS

Home | Current Version | Previous Version | Text Only | Print | Product List | Glossary On
Versions: 1 2 3 4 5 6 7 8 9 10 11 12 13 14 15 16 17 18 19 20 21 22 23 24
000
FTUS42 KCAE 310500
TAFCUB
TAF
KCUB 310538Z 3106/0106 VRB03KT P6SM BKN080
     FM311400 08006KT P6SM BKN070
     FM311900 09007KT P6SM VCSH SCT030 BKN050
     FM010500 05005KT P6SM SCT025 BKN035=

USA.gov is the U.S. government's official web portal to all federal, state and local government web resources and services.